Lapse_Rate
5.5 7.8 8.0 9.0 6.5 6.5 6.5 6.5 6.5 6.5 6.5 7.6 7.8 7.1 6.6 7.3 6.5 6.5 9.8 10.0 10.0 10.2 9.3 6.6 5.9 6.1 5.9 5.6 5.6 5.9 5.8 6.1 6.1 6.2 6.2 5.9 5.7 5.7 5.8 6.0 5.9 6.0 6.1 6.3 6.1 6.1 6.1 6.1 6.0
9.6 7.1 9.2 7.9 6.5 6.5 6.5 6.5 6.5 6.5 7.3 7.8 7.8 7.6 7.1 6.5 8.5 6.0 9.3 9.9 10.2 10.1 9.6 9.3 5.8 5.9 5.9 5.8 5.6 5.9 6.1 6.2 6.3 6.4 6.4 6.1 5.8 5.8 5.9 5.9 5.9 6.1 6.3 6.4 6.3 6.2 6.4 6.5 6.4
7.4 7.6 7.9 6.5 6.5 6.5 6.5 6.5 6.5 7.0 7.6 7.4 7.3 8.0 7.7 7.4 8.6 9.1 9.9 10.2 10.2 10.2 9.6 9.2 5.6 5.6 5.9 5.9 5.8 5.9 6.1 6.1 6.4 6.5 6.4 6.1 5.9 5.9 5.9 6.0 6.1 6.2 6.5 6.6 6.1 6.4 6.5 6.6 6.7
9.2 8.9 8.0 6.6 6.5 6.5 6.5 6.5 6.9 6.9 7.5 7.8 7.6 6.7 8.4 9.1 9.0 9.6 10.1 10.2 10.4 10.3 9.8 5.6 5.6 5.8 5.6 5.7 5.9 5.9 6.2 6.2 6.4 6.4 6.3 6.1 5.9 5.9 5.8 6.1 6.4 6.6 6.6 6.9 6.4 6.4 6.6 6.6 6.7
9.3 8.1 6.5 6.5 6.5 6.5 6.5 7.1 7.2 6.5 7.0 7.3 7.7 6.8 7.6 8.9 9.6 10.0 10.1 10.3 10.2 10.2 9.8 7.0 5.3 5.6 5.6 5.5 5.6 5.7 6.1 5.9 6.1 6.4 6.2 5.9 5.9 5.8 5.8 6.2 6.6 6.6 6.9 6.5 6.3 6.4 6.5 6.6 6.6
7.6 7.6 6.5 6.5 6.5 6.5 6.6 7.4 7.2 6.9 7.3 7.4 7.3 7.3 7.8 9.1 9.4 10.0 10.2 10.2 10.3 10.2 9.8 9.4 5.6 5.7 5.4 5.4 5.6 5.6 5.7 5.7 5.8 5.9 5.9 5.9 5.8 5.8 6.2 6.4 6.5 7.0 6.8 6.6 6.4 6.1 6.2 6.4 6.3
7.0 6.5 6.5 6.5 6.5 6.6 6.5 7.6 6.9 6.9 7.0 7.0 8.0 6.5 7.9 8.6 9.7 10.0 10.2 10.2 10.3 10.0 9.9 9.5 9.3 7.1 5.7 5.7 5.7 5.8 6.1 5.9 5.7 5.8 5.8 5.7 5.9 6.0 6.0 6.4 7.1 6.9 6.6 6.6 6.7 6.4 6.4 6.4 6.4
7.8 6.6 6.5 6.5 6.4 6.5 6.8 7.2 7.6 7.3 6.9 8.5 8.5 6.7 7.0 8.6 9.6 10.0 10.2 10.1 10.0 10.0 9.8 9.8 8.9 9.1 9.1 8.0 6.2 6.3 6.6 6.6 6.1 6.1 6.1 6.1 6.1 6.4 6.4 6.7 6.7 6.7 6.7 6.8 6.9 6.8 6.7 6.6 6.4
8.4 6.5 6.5 6.6 6.5 6.5 7.2 6.6 7.8 8.4 7.7 7.9 8.3 8.2 8.9 9.2 9.6 9.7 9.7 9.7 9.5 9.7 9.8 9.9 10.0 8.3 8.0 8.4 8.0 6.8 6.4 6.7 7.1 6.8 6.6 6.9 9.2 9.3 9.3 8.0 6.7 6.6 7.0 7.0 7.2 6.9 6.4 6.3 6.3
7.0 6.5 6.5 6.6 6.6 6.4 7.0 7.0 7.2 7.1 7.2 7.4 7.9 8.8 9.2 9.1 9.2 9.3 9.2 9.4 9.3 9.5 9.6 10.0 9.9 9.7 9.4 9.6 9.0 8.6 8.9 9.3 9.4 9.5 9.2 8.8 9.6 9.6 9.2 7.7 6.7 6.2 6.8 7.2 6.9 7.0 6.7 6.3 9.5
7.1 6.5 6.6 6.8 7.3 7.4 7.0 7.0 7.7 6.9 6.5 7.4 7.3 8.3 8.9 8.3 9.1 9.2 9.3 9.4 9.6 9.6 9.9 9.9 9.8 9.5 9.7 9.6 9.2 9.5 9.5 9.6 9.5 7.4 7.5 8.9 9.5 9.5 9.5 9.3 6.4 5.4 5.6 6.3 8.6 7.7 8.2 9.1 9.6
6.6 7.0 7.1 7.2 7.5 7.4 6.8 7.4 7.0 7.2 7.3 8.2 8.4 8.8 8.9 8.7 9.1 9.2 9.4 9.4 9.5 9.6 9.7 9.7 7.3 9.7 9.6 9.6 9.7 9.7 9.8 9.7 9.7 9.5 9.4 9.4 9.6 9.7 9.7 8.8 6.5 6.3 7.3 8.1 5.2 6.0 8.4 8.7 8.1
6.6 6.8 7.3 7.5 7.6 7.5 7.5 7.0 6.9 7.1 8.1 8.6 8.7 8.7 8.7 8.9 9.0 9.3 9.4 9.5 9.7 9.7 9.8 9.7 9.2 9.7 9.5 9.5 9.6 9.8 9.7 9.7 9.7 9.5 9.4 9.6 9.8 9.7 9.7 9.6 7.4 6.9 7.2 7.0 6.8 7.1 7.9 9.5 9.5
7.2 7.0 7.1 7.3 7.2 7.3 6.8 6.8 7.2 7.5 8.3 8.3 8.4 8.5 8.8 8.9 9.1 9.1 9.3 9.4 9.5 9.6 9.7 10.0 8.8 9.6 9.5 9.7 9.5 9.7 9.7 9.7 9.7 9.7 9.5 8.4 9.5 9.6 9.9 9.4 9.6 7.4 7.2 7.2 8.7 8.2 7.6 9.1 9.5
7.4 6.5 6.5 6.8 7.1 6.8 7.4 6.5 6.5 7.8 8.2 8.1 8.2 8.4 8.7 8.9 9.1 9.0 9.3 9.3 9.5 9.8 9.8 9.8 9.7 9.8 9.5 9.1 9.3 9.5 9.7 9.7 9.8 9.7 8.9 7.5 8.9 8.4 7.9 9.7 9.9 9.8 9.6 6.7 6.3 8.5 6.9 9.3 9.7
6.5 6.5 6.5 6.5 6.8 7.0 6.9 6.5 6.7 7.8 7.6 7.7 8.1 8.3 8.4 8.7 9.1 9.2 9.4 9.5 9.7 9.4 9.4 9.8 10.0 10.0 9.6 9.9 9.4 9.7 9.7 9.7 9.7 9.7 9.6 7.7 9.0 7.9 8.4 9.9 9.9 9.6 8.3 9.4 9.8 5.6 8.3 8.4 9.7
6.5 6.5 6.4 6.6 6.9 6.5 6.5 6.5 7.0 7.8 7.6 7.4 7.7 8.1 8.3 8.5 8.8 9.2 9.4 9.5 9.7 9.5 6.7 9.4 9.5 9.6 8.3 9.1 9.6 9.6 9.6 9.7 9.7 9.7 9.7 9.2 9.3 9.3 8.4 9.8 9.8 9.2 9.8 9.6 9.8 9.6 9.1 8.7 9.6
6.5 6.4 6.5 6.5 6.5 6.5 6.5 6.5 6.5 7.4 7.4 7.2 7.6 8.0 8.1 8.4 8.7 9.1 9.3 9.5 9.7 9.6 7.6 6.2 9.3 8.4 8.4 9.5 8.6 9.8 10.0 9.9 9.7 9.7 9.7 9.5 9.4 9.4 8.5 9.7 9.2 9.0 10.0 9.8 9.8 7.4 7.4 7.7 9.6
6.5 6.5 6.5 6.5 6.5 6.5 6.5 6.5 6.5 7.2 7.5 7.2 7.4 7.8 8.0 8.2 8.9 8.9 9.3 9.6 9.5 9.5 9.4 6.3 6.6 7.7 6.8 6.1 9.1 9.5 9.5 9.7 9.9 9.9 9.6 9.5 9.3 9.5 8.1 9.8 9.7 9.5 9.4 9.1 8.5 9.4 9.3 9.5 9.2
6.6 6.6 6.5 6.5 6.5 6.5 6.6 6.5 6.5 6.9 7.2 7.5 7.5 7.7 7.9 8.3 8.7 8.9 8.9 9.4 9.5 9.3 9.2 8.4 7.0 6.0 6.2 9.0 7.9 9.7 9.6 9.8 9.8 9.8 9.5 9.2 9.5 9.3 8.8 8.3 9.8 9.8 9.8 9.4 8.6 8.3 9.4 9.5 9.5
6.5 6.5 6.5 6.5 6.5 6.5 6.5 6.6 6.5 6.7 7.3 7.7 7.9 8.1 8.1 8.1 8.4 8.8 8.8 9.1 9.4 9.1 9.2 8.0 6.4 6.9 6.3 7.8 9.3 8.6 7.9 8.4 8.4 8.0 9.2 9.6 8.6 9.0 8.3 8.3 8.6 9.7 9.4 9.8 9.4 9.2 9.2 9.1 9.5
6.5 6.5 6.5 6.5 6.5 6.5 6.5 6.5 6.5 6.6 6.5 6.9 7.6 7.9 8.1 8.1 8.4 8.7 8.9 9.0 9.2 9.3 9.4 9.4 7.8 6.4 6.8 6.5 9.2 8.6 9.2 7.8 9.5 9.6 9.8 9.9 9.4 8.7 9.4 8.1 8.1 8.3 9.7 9.6 9.6 9.6 8.8 8.7 9.1
6.5 6.5 6.5 6.5 6.5 6.5 6.5 6.5 6.5 6.5 6.5 6.5 7.2 7.9 8.3 8.5 8.4 8.4 8.9 8.9 9.3 9.3 9.5 9.5 9.2 8.1 7.3 6.7 7.6 8.4 6.7 8.8 9.5 9.6 9.3 8.5 9.6 8.5 9.4 9.1 8.8 8.9 9.7 9.6 9.3 9.5 8.3 9.4 9.4
6.5 6.5 6.5 6.5 6.5 6.6 6.5 6.5 6.5 6.5 6.5 6.5 7.3 7.8 8.2 8.5 8.6 8.6 8.8 9.0 9.1 9.4 9.3 9.4 9.0 6.8 6.7 6.5 6.1 6.9 8.8 8.8 9.3 9.4 9.1 8.4 9.9 9.9 8.5 9.5 8.8 8.3 9.4 9.6 9.7 9.5 9.0 8.5 9.5
6.5 6.5 6.5 6.5 6.5 6.5 6.5 6.5 6.5 6.5 6.6 6.8 7.1 7.7 8.2 8.6 8.7 8.7 8.6 8.7 9.0 9.1 9.3 9.4 9.2 8.8 8.5 6.7 6.3 6.4 6.9 7.4 8.2 7.2 8.8 9.4 9.4 9.5 9.6 9.2 9.1 9.4 8.3 8.0 7.8 8.1 8.8 8.7 9.2
6.5 6.5 6.5 6.5 6.5 6.5 6.5 6.5 6.5 6.5 7.3 7.6 7.9 8.2 8.3 8.5 8.9 8.9 8.7 8.8 8.9 9.0 9.2 9.2 9.2 9.0 9.0 8.9 7.4 6.6 6.7 8.8 9.0 9.2 9.4 9.5 9.4 8.6 9.4 9.7 8.4 8.8 8.3 8.3 8.4 6.7 6.8 9.4 9.5
6.5 6.5 6.5 6.5 6.5 6.5 6.5 6.5 6.5 6.5 6.6 7.3 7.5 7.9 8.1 8.4 8.6 8.8 8.9 8.9 8.9 9.0 9.1 9.2 9.2 9.1 9.3 9.4 9.2 8.8 7.8 7.4 9.4 9.1 9.5 9.4 9.1 9.6 9.6 9.2 8.3 8.4 8.3 8.8 8.0 7.5 8.9 7.5 7.9
6.5 6.5 6.5 6.4 6.5 6.4 6.5 6.5 6.5 6.5 6.5 6.5 7.0 7.5 8.0 8.5 8.6 8.7 8.9 9.2 9.2 9.3 9.3 9.4 9.3 9.2 9.3 9.4 9.4 9.3 9.2 8.8 9.2 9.4 9.1 8.7 9.5 9.4 7.6 7.9 8.3 8.4 8.7 8.0 8.6 8.2 8.4 7.9 8.6
6.5 6.5 6.6 6.4 6.5 6.5 6.5 6.5 6.5 6.4 6.5 6.5 7.2 7.7 8.1 8.2 8.5 8.7 8.8 9.0 9.1 9.3 9.4 9.2 9.3 9.2 9.3 9.5 9.4 9.3 9.4 9.4 8.9 9.2 9.3 9.1 8.6 7.8 7.2 6.7 6.7 7.1 7.8 7.5 7.5 7.9 8.5 7.7 8.0
6.5 6.5 6.6 6.5 6.5 6.5 6.5 6.6 6.5 6.6 7.0 7.2 7.4 7.7 8.2 8.4 8.6 8.8 8.8 9.0 8.9 8.1 7.1 8.1 8.9 8.7 8.8 8.8 9.1 9.4 9.4 9.4 9.5 7.8 6.8 8.0 9.1 8.0 7.5 7.5 7.2 7.0 7.2 7.4 7.2 7.5 8.7 7.1 6.9
Wind_Speed
11 7 3 5 5 2 8 7 3 7 5 6 7 1 4 7 7 3 12 13 20 20 24 20 16 16 15 16 17 16 18 17 13 12 11 9 8 7 6 4 3 5 6 6 8 8 9 10 12
4 2 4 2 5 5 8 5 8 8 6 3 6 3 1 6 8 6 14 16 21 21 24 22 17 17 16 16 18 16 16 16 14 12 10 9 7 6 4 3 2 3 4 5 6 7 8 10 11
3 4 3 3 3 8 9 6 8 6 3 2 3 3 3 4 5 15 14 20 20 18 23 22 18 17 17 16 17 17 16 16 14 11 9 7 6 5 4 2 2 1 1 5 6 7 8 9 10
3 4 4 3 8 5 5 5 7 6 5 2 1 7 7 6 8 7 20 20 18 18 20 25 19 18 17 16 15 15 14 13 12 10 8 6 5 3 2 1 1 1 3 5 4 6 8 9 10
3 3 1 3 5 3 3 4 1 2 2 1 2 6 6 7 7 17 19 17 16 14 18 21 19 18 17 16 15 15 13 12 10 9 7 5 4 3 1 1 1 2 5 4 3 4 5 6 7
4 2 2 9 11 5 2 0 1 2 1 3 4 8 7 3 14 18 18 16 15 14 18 20 18 17 16 15 14 15 13 12 10 8 7 6 5 4 3 2 2 2 4 4 4 3 3 4 4
5 3 6 6 8 6 6 1 2 2 2 1 5 6 5 8 16 17 17 15 15 15 16 18 18 18 16 15 14 13 13 12 10 9 7 7 6 6 5 4 4 4 4 5 4 4 3 3 4
4 3 3 5 9 9 5 1 2 1 5 6 5 6 9 13 16 17 16 15 13 12 12 15 12 19 17 17 15 12 13 12 11 10 9 8 8 7 8 6 7 5 6 6 5 4 3 3 3
1 2 7 8 9 7 2 1 3 2 6 2 3 3 15 21 16 17 16 15 12 10 11 13 16 12 14 14 14 11 9 8 9 10 10 10 12 9 5 0 3 5 6 6 3 3 4 4 6
3 3 8 5 7 8 2 1 2 3 4 5 6 11 20 21 18 19 17 15 16 15 13 11 11 14 13 10 9 10 10 11 11 7 7 11 3 0 2 1 4 7 10 6 4 3 5 9 5
2 6 7 6 7 7 3 1 3 2 3 3 9 15 19 19 17 17 18 17 17 16 13 12 8 10 12 10 13 11 10 8 7 6 6 7 5 5 8 7 7 6 10 8 7 3 6 6 4
2 4 6 7 5 6 4 3 1 2 5 5 11 16 18 19 17 17 17 17 16 16 15 12 10 11 11 8 9 8 7 7 6 7 6 4 7 5 2 8 8 7 9 6 4 8 8 5 3
3 8 8 9 10 5 1 1 1 3 5 9 13 16 18 18 17 15 15 15 14 15 15 15 15 10 9 8 8 7 6 7 7 6 8 5 5 3 4 2 3 6 7 6 5 6 4 4 5
9 9 7 8 6 1 4 1 4 4 9 13 14 16 16 16 17 14 14 14 14 14 14 14 15 13 11 8 7 6 7 7 7 7 7 8 6 3 3 4 4 9 7 5 6 4 1 2 3
7 5 6 11 6 4 6 5 2 9 12 14 14 14 15 15 16 15 15 14 15 14 14 15 14 14 11 10 9 9 7 8 7 8 7 8 7 6 5 4 4 3 2 4 5 4 2 4 3
6 2 4 7 8 5 5 15 16 5 8 14 16 15 15 16 17 15 15 14 13 13 13 13 12 14 12 9 9 9 8 8 8 8 8 9 8 6 5 4 3 5 4 4 4 3 2 4 2
3 6 6 6 5 4 4 14 18 5 6 8 10 11 13 13 14 15 15 15 14 13 11 13 13 13 11 9 8 8 7 8 8 8 9 10 9 8 7 6 3 4 5 2 3 4 1 1 2
7 7 6 6 5 7 11 13 17 12 2 4 8 10 11 12 15 14 15 15 15 14 14 13 12 12 9 8 7 6 5 8 9 9 9 8 10 8 7 7 5 6 4 3 2 1 3 3 3
5 7 7 3 5 6 11 14 16 16 14 4 5 9 11 12 12 13 14 15 15 14 15 15 14 12 10 8 8 8 8 7 7 9 9 9 10 9 7 8 6 6 5 3 5 4 3 2 2
6 7 4 4 6 1 10 16 14 16 14 11 9 6 7 11 13 14 15 17 17 16 16 15 15 15 12 10 8 8 7 7 8 10 10 12 10 11 11 9 7 6 6 5 6 3 5 3 2
10 8 6 5 3 4 4 12 16 13 16 14 12 7 5 7 13 15 16 17 17 17 17 17 17 16 15 13 9 8 6 5 5 6 7 9 12 12 13 13 10 6 7 7 5 5 4 5 1
12 4 3 3 7 3 4 6 16 13 17 18 16 14 10 8 6 13 15 16 17 17 17 17 17 17 16 16 11 13 10 8 9 8 8 8 12 13 13 13 11 9 7 6 6 6 5 4 4
10 4 4 5 8 7 2 1 10 12 16 19 19 18 16 12 6 7 14 14 15 15 15 16 17 17 16 16 15 12 11 10 9 7 9 8 9 13 15 14 13 10 8 8 9 6 6 4 6
4 9 11 7 7 6 4 4 11 9 15 16 18 19 19 18 14 1 7 9 11 12 13 14 16 17 17 15 17 16 14 13 10 10 8 7 9 10 14 15 13 12 9 9 8 9 8 8 5
10 13 6 7 7 6 4 6 6 9 11 14 16 18 19 18 18 13 4 2 6 9 11 11 13 15 17 18 17 17 16 15 14 11 9 10 8 9 10 11 11 10 12 10 7 7 9 7 8
10 9 4 4 3 10 3 8 6 9 10 12 14 16 17 18 18 17 14 6 2 4 9 11 12 13 15 16 17 15 16 12 12 14 11 11 10 7 9 10 10 12 14 11 12 7 7 11 9
7 6 8 1 3 6 7 9 8 7 10 12 14 16 18 18 18 17 16 15 8 2 4 7 9 11 13 15 14 15 14 16 13 14 12 11 12 11 11 9 10 11 13 11 11 8 12 10 8
6 3 6 5 3 6 8 9 8 5 7 10 13 15 16 17 18 17 16 15 13 10 2 2 6 9 10 12 12 12 14 14 14 13 14 14 13 12 13 12 12 13 13 14 12 11 12 10 10
5 8 1 5 5 7 6 7 7 7 6 8 11 12 14 14 15 15 15 15 15 13 9 4 2 5 7 9 10 12 13 14 14 14 14 14 13 13 14 14 13 14 14 13 12 13 13 11 13
2 2 8 7 3 1 8 5 7 8 7 7 9 10 11 12 12 12 13 14 13 11 12 14 11 10 9 6 8 11 12 13 14 14 14 14 14 13 14 14 14 14 14 14 15 16 14 13 13
Wind_Direction
162 195 206 230 230 197 57 64 57 83 86 57 107 33 33 21 24 55 134 145 149 154 152 162 155 150 140 136 136 149 149 145 144 144 141 140 129 116 109 101 90 86 93 97 96 99 98 98 101
138 188 227 274 298 52 74 54 58 57 77 116 115 143 36 80 57 128 140 151 154 152 153 159 155 152 146 142 138 145 147 144 146 148 143 137 128 116 102 88 64 67 86 90 89 108 116 113 112
196 254 278 302 346 43 57 75 102 90 78 112 99 18 23 48 82 147 130 155 158 152 157 145 155 153 154 151 144 142 145 144 145 149 145 143 131 115 96 56 31 53 117 113 104 102 113 120 120
264 190 216 336 53 67 22 72 110 114 85 62 54 92 100 20 145 139 146 156 154 154 161 138 157 156 160 163 156 151 151 151 153 155 154 149 144 146 129 74 301 138 126 124 109 98 110 113 116
246 249 49 88 62 38 30 44 152 165 89 104 207 118 88 61 116 136 150 158 149 159 146 155 163 161 161 166 164 160 161 163 165 162 162 169 178 183 191 276 196 124 137 127 128 111 125 128 127
235 291 105 62 62 45 15 36 180 228 11 119 142 126 81 118 142 146 154 157 148 160 144 152 164 167 166 171 169 164 169 172 172 177 180 189 207 206 215 246 225 210 171 159 158 147 144 150 161
312 297 54 43 34 46 13 36 255 2 92 94 123 114 94 169 145 150 156 151 156 155 151 157 167 171 174 178 178 176 176 178 177 187 200 211 217 225 240 249 243 214 217 187 186 184 179 179 186
307 286 81 58 22 42 21 24 40 20 75 106 165 146 160 166 152 152 157 155 161 156 156 165 169 168 173 171 184 181 182 187 186 199 210 216 227 232 232 245 231 229 231 222 201 209 218 212 215
344 237 53 28 7 9 53 289 71 80 126 102 111 65 123 152 151 157 158 160 162 162 180 180 172 159 177 163 173 179 183 189 186 200 215 216 230 190 205 198 352 281 266 267 242 241 207 219 206
312 18 20 348 349 340 28 296 133 174 130 125 117 108 129 144 164 166 164 168 174 176 177 182 173 167 180 177 168 190 178 197 204 199 185 232 211 177 341 57 16 347 299 265 289 252 216 230 235
68 16 357 351 331 330 24 204 175 264 140 126 157 145 146 156 169 173 176 179 178 177 171 182 182 176 177 177 186 185 187 198 188 195 222 214 214 183 190 133 138 229 263 287 272 220 253 262 265
296 7 345 324 341 307 338 97 132 246 73 92 139 154 155 167 173 180 180 179 176 181 176 178 181 182 193 184 201 186 192 189 201 188 202 219 217 180 226 130 169 227 244 226 262 278 265 230 227
287 344 340 330 299 274 117 190 339 193 145 130 138 158 166 172 173 178 181 175 181 187 184 170 196 187 191 203 201 195 211 202 191 190 193 225 225 208 221 147 177 236 207 247 196 240 251 243 224
332 314 332 358 4 75 266 135 232 118 160 142 151 165 168 174 175 170 180 178 185 188 187 179 190 193 196 202 211 216 207 201 196 195 194 208 236 206 262 241 239 199 228 265 255 254 360 294 254
305 316 122 31 23 34 308 212 156 138 157 155 161 170 170 175 176 180 179 184 189 189 189 190 188 191 198 198 201 216 218 205 207 203 191 211 221 198 279 280 284 320 329 235 278 283 284 282 227
304 209 63 47 12 27 288 55 34 128 178 173 170 172 180 182 180 183 185 189 189 188 201 196 194 195 193 201 194 219 214 223 213 210 199 211 219 235 246 256 286 16 299 262 188 227 299 257 248
171 7 25 93 30 28 356 12 2 353 204 182 182 185 187 187 194 187 190 193 188 190 191 201 198 201 187 211 212 217 210 217 210 207 208 194 225 230 250 266 278 309 306 268 300 309 303 232 340
14 339 346 3 38 38 47 40 19 10 182 201 174 202 206 198 199 197 201 196 199 187 182 206 202 206 205 199 213 215 206 208 207 207 214 209 223 233 241 250 280 284 287 267 324 98 309 301 310
312 311 307 348 79 77 65 49 38 34 35 55 184 202 214 221 198 200 204 203 200 199 194 192 199 196 193 206 210 208 213 204 210 219 216 217 229 235 230 252 248 247 258 301 288 281 237 294 283
276 286 287 292 94 262 80 67 55 51 46 44 26 337 252 228 210 196 205 206 204 198 202 202 204 194 201 201 214 220 228 220 218 216 212 227 230 231 233 242 257 264 269 233 260 273 305 259 75
243 288 347 336 337 152 207 72 49 56 54 42 39 12 322 282 251 205 202 206 205 207 204 203 203 199 199 212 187 214 235 254 238 240 216 231 228 230 230 245 250 264 255 252 229 234 263 297 291
277 70 307 288 295 16 321 113 45 33 42 38 28 28 15 348 242 229 204 206 208 205 206 208 204 204 201 196 199 206 216 219 222 224 231 233 224 233 232 230 235 238 258 256 249 233 272 253 275
296 335 309 302 285 259 90 193 36 34 22 24 24 25 24 19 359 274 219 208 212 199 206 205 206 207 210 198 209 204 205 217 243 229 234 212 238 238 233 231 232 233 239 241 263 277 237 238 277
305 266 246 247 241 175 14 264 51 22 8 12 19 22 23 20 15 11 256 214 214 204 206 203 201 206 204 206 207 212 215 218 224 218 236 219 233 232 224 237 234 240 244 245 250 251 252 260 270
240 244 246 197 191 56 91 68 54 43 30 22 22 25 24 26 29 39 86 185 228 207 201 209 210 211 209 208 206 214 218 217 221 228 225 245 244 235 229 218 238 233 227 247 245 264 269 236 256
208 307 300 200 220 115 176 138 102 84 54 41 37 35 31 30 33 34 26 41 19 228 207 210 207 213 212 214 216 215 217 224 222 222 226 237 232 247 243 241 228 248 257 243 237 218 224 248 233
152 240 14 252 178 234 108 102 152 99 61 44 38 36 35 31 31 31 34 18 15 0 226 219 216 211 222 214 219 222 221 229 234 236 231 225 234 248 255 251 241 242 251 245 241 238 241 234 233
303 16 239 228 196 245 156 168 97 114 51 45 43 38 37 37 34 30 28 29 19 6 26 253 222 224 230 227 218 221 224 228 239 245 239 248 251 240 241 232 233 242 241 247 245 231 234 235 239
181 206 210 313 308 315 235 127 102 105 71 55 50 42 37 33 35 35 30 27 22 18 16 11 285 235 234 234 233 228 224 223 225 234 239 238 239 239 246 249 239 225 236 238 240 245 249 227 232
293 6 269 315 137 191 303 80 122 112 90 58 53 40 34 38 28 26 28 29 29 24 14 14 19 11 351 328 254 245 244 243 232 221 227 237 238 232 240 243 247 243 233 233 228 232 236 228 228